Location: Taaricht
(32.5378°N, 5.4251°W)
Time: 12:34:33
(UTC+00:00)

COSMOS 2406 - Pass Details

Date: 09 April 2020
Orbit: 842 x 865 km, 71.0° (Epoch: 04 June)

Event Time Altitude Azimuth Distance (km) Brightness Sun altitude
Exits shadow 20:54:57 36° 44° (NE) 1,325 4.0 -26.0°
Drops below altitude 10° 20:58:20 10° 29° (NNE) 2,476 5.6 -26.6°
Sets 21:00:49 0° 25° (NNE) 3,419 6.4 -27.1°
